AO-07 1 07530U 74089B 17292.43019935 -.00000042 00000-0 12817-4 0 9998 2 07530 101.6483 258.7396 0012456 080.9646 070.9797 12.53629410964192 UO-11 1 14781U 84021B 17292.59325806 .00000106 00000-0 19349-4 0 9992 2 14781 097.6833 333.6299 0009368 144.3646 215.8195 14.82944155787789 LO-19 1 20442U 90005G 17292.37187470 .00000017 00000-0 22452-4 0 9991 2 20442 098.5839 227.6660 0012463 136.9183 223.2979 14.32874128449340 HUBBLE 1 20580U 90037B 17292.37861019 .00000657 00000-0 29471-4 0 9995 2 20580 028.4696 266.8266 0002936 071.9055 055.8791 15.08890919308977 MET-2/21 1 22782U 93055A 17292.61895834 .00000022 00000-0 63373-5 0 9999 2 22782 82.5458 284.8316 0023749 82.5247 55.2519 13.83802773218909 AO-27 1 22825U 93061C 17292.45860089 -.00000002 00000-0 16890-4 0 9990 2 22825 098.8289 259.6648 0007985 335.9651 024.1157 14.30010053254891 IO-26 1 22826U 93061D 17292.88079546 .00000006 00000-0 19783-4 0 9995 2 22826 98.8230 260.1601 0008319 323.8926 36.1694 14.30339925255406 FO-29 1 24278U 96046B 17292.61362427 -.00000005 00000-0 31074-4 0 9995 2 24278 098.5417 159.1967 0350746 015.0931 346.0362 13.53079847045450 NOAA-15 1 25338U 98030A 17292.56541588 .00000022 00000-0 28214-4 0 9999 2 25338 098.7807 303.7172 0010161 200.4866 159.5907 14.25821381010473 GO-32 1 25397U 98043D 17292.38490017 -.00000014 00000-0 12873-4 0 9994 2 25397 098.6207 232.1603 0001760 039.7570 320.3738 14.23631282001247 ISS 1 25544U 98067A 17292.87709491 .00000991 00000-0 22188-4 0 9990 2 25544 51.6400 136.7303 0005369 38.0530 143.9815 15.54206566 81148 NO-44 1 26931U 01043C 17292.56159528 .00000006 00000-0 33927-4 0 9995 2 26931 067.0494 130.2892 0005665 258.3818 101.6647 14.30478926838069 SO-50 1 27607U 02058C 17292.45461411 .00000046 00000-0 27158-4 0 9991 2 27607 064.5541 105.8088 0036101 037.0090 323.3492 14.75377927797314 CO-55 1 27844U 03031E 17292.47270230 .00000078 00000-0 54839-4 0 9996 2 27844 098.6904 299.6744 0009629 354.7098 005.3976 14.22067811741943 CO-57 1 27848U 03031J 17292.01363523 .00000059 00000-0 46930-4 0 9990 2 27848 98.6995 299.5322 0009727 5.8254 354.3035 14.21678408741790 RS-22 1 27939U 03042A 17292.91211644 .00000124 00000-0 30825-4 0 9997 2 27939 97.9576 73.7698 0012883 184.7621 333.5106 14.66615530751591 NOAA-18 1 28654U 05018A 17292.52611818 .00000011 00000-0 31480-4 0 9994 2 28654 099.1746 317.7325 0015286 083.9941 276.2971 14.12353417639718 CO-58 1 28895U 05043F 17292.40893268 .00000189 00000-0 45159-4 0 9991 2 28895 097.8794 089.0887 0018140 109.5259 250.7905 14.63456021638426 Falconsat-3 1 30776U 07006E 17292.51821105 .00003595 00000-0 11108-3 0 9996 2 30776 035.4367 357.4275 0002713 356.3269 003.7436 15.33146955587345 CO-65 1 32785U 08021C 17292.72081332 .00000300 00000-0 38325-4 0 9991 2 32785 97.5601 311.2678 0014575 113.3557 246.9195 14.87980134513415 AAUSAT2 1 32788U 08021F 17292.54549259 .00000437 00000-0 45971-4 0 9997 2 32788 097.5480 323.7810 0013425 077.0063 283.2655 14.94054711514147 DO-64 1 32789U 08021G 17292.34938853 .00001585 00000-0 11474-3 0 9993 2 32789 097.5470 347.9061 0013717 046.1436 314.0922 15.05351362515447 CO-66 1 32791U 08021J 17292.05592996 .00000392 00000-0 45615-4 0 9998 2 32791 97.5552 315.3722 0015029 100.4842 259.8071 14.90351179513591 RS-30 1 32953U 08025A 17292.63216865 .00000039 00000-0 21187-3 0 9999 2 32953 082.5034 162.2858 0019707 015.9429 344.2267 12.43079690426889 PRISM 1 33493U 09002B 17292.72505964 .00001719 00000-0 15894-3 0 9990 2 33493 98.1518 180.3045 0016948 35.4533 324.7803 14.95892092474391 NOAA-19 1 33591U 09005A 17292.54067334 .00000091 00000-0 74518-4 0 9997 2 33591 099.1089 261.2267 0013044 284.3794 075.5928 14.12221104447946 TISAT-1 1 36799U 10035E 17292.81262662 .00000552 00000-0 62554-4 0 9995 2 36799 98.0773 58.1848 0011069 278.3545 81.6417 14.90552995394344 JUGNU 1 37839U 11058B 17292.62127610 .00000330 00000-0 33874-4 0 9996 2 37839 019.9617 055.9681 0019023 114.6330 007.3446 14.12597454311205 SRMSAT 1 37841U 11058D 17292.79174174 .00000328 00000-0 35087-4 0 9999 2 37841 19.9716 99.1825 0011903 10.1648 114.6804 14.10588133310895 AO-71 1 37854U 11061E 17292.36558699 .00002518 00000-0 14005-3 0 9997 2 37854 101.6956 229.1242 0166441 067.2352 294.6351 15.04543604325154 HRBE 1 37855U 11061F 17292.79365641 .00002104 00000-0 11627-3 0 9996 2 37855 101.7076 227.4943 0179474 73.2738 288.8083 15.03509045325510 ALMASAT-1 1 38078U 12006B 17292.88308426 .00023179 36967-5 25092-3 0 9994 2 38078 69.4353 155.5118 0283902 106.7405 256.5122 15.28024406303798 HORYU-2 1 38340U 12025D 17292.60467393 .00000269 00000-0 47742-4 0 9992 2 38340 98.3780 300.9272 0010402 254.8906 105.1151 14.75422744291634 RS-40 1 38735U 12041C 17292.85084670 -.00000003 00000-0 -90982-4 0 9990 2 38735 82.4753 246.4429 0017737 114.3086 245.9848 12.42574893237182 BEESAT-3 1 39134U 13015E 17292.53329427 .00001538 00000-0 83218-4 0 9999 2 39134 064.8662 184.9453 0036143 245.0176 114.7194 15.18334041247976 BEESAT-2 1 39136U 13015G 17292.71850041 .00001349 00000-0 80362-4 0 9999 2 39136 64.8699 196.8194 0033322 265.7501 93.9816 15.15502944248144 ZACUBE-1 1 39417U 13066B 17292.56568907 .00000298 00000-0 44209-4 0 9999 2 39417 097.6169 328.6950 0058314 221.9458 137.7282 14.80794961211181 TRITON-1 1 39427U 13066M 17292.55912948 .00000299 00000-0 56162-4 0 9999 2 39427 097.6370 299.5778 0113132 310.8478 048.2963 14.67539886209097 GOMX-1 1 39430U 13066Q 17292.72416554 .00000360 00000-0 74361-4 0 9994 2 39430 97.6736 282.3196 0152141 10.3060 350.1200 14.58947173208093 LO-74 1 39440U 13066AA 17292.27952446 .00000293 00000-0 48194-4 0 9990 2 39440 097.6198 316.6479 0079234 257.4849 101.7489 14.75535180209192 AO-73 1 39444U 13066AE 17292.55075376 .00000368 00000-0 52132-4 0 9993 2 39444 097.6184 329.8952 0057562 218.2270 141.4856 14.81545461209432 SPROUT 1 39770U 14029E 17292.77472848 .00000933 00000-0 11174-3 0 9992 2 39770 97.8759 30.9602 0007634 281.2738 78.7620 14.86467546184648 DUCHIFAT-1 1 40021U 14033M 17292.53969476 .00000539 00000-0 61727-4 0 9992 2 40021 097.9133 205.8527 0011582 250.5961 109.4005 14.90049776181113 NANOSATCBR1 1 40024U 14033Q 17292.33006424 .00000498 00000-0 58432-4 0 9991 2 40024 097.9084 204.3293 0010884 252.8011 107.2015 14.89351911180504 EO-79 1 40025U 14033R 17292.30946042 .00000461 00000-0 55613-4 0 9996 2 40025 97.9059 203.1608 0011106 256.5730 103.4248 14.88533200180958 DTUSAT-2 1 40030U 14033W 17292.27903109 .00000419 00000-0 51517-4 0 9997 2 40030 097.9020 202.1130 0010542 250.6018 109.4059 14.88150394180391 EO-80 1 40032U 14033Y 17292.52837946 .00000395 00000-0 48994-4 0 9990 2 40032 097.9026 202.3666 0010518 250.0024 110.0060 14.88086140180419 ANTELSAT 1 40034U 14033AA 17292.60136577 .00000303 00000-0 52939-4 0 9996 2 40034 097.8402 172.5580 0057592 252.4982 106.9928 14.73781790178717 VELOX-1 1 40057U 14034E 17292.80009964 .00000546 00000-0 84538-4 0 9992 2 40057 98.1938 34.9316 0011536 25.9161 334.2621 14.77238154178157 DAURIA DX 1 1 40071U 14037C 17292.78104749 .00000244 00000-0 38802-4 0 9993 2 40071 98.3492 48.8806 0009155 21.5316 338.6281 14.81073062177414 UKUBE-1 1 40074U 14037F 17292.79945111 .00000596 00000-0 79333-4 0 9997 2 40074 98.3598 53.4139 0005185 25.3392 334.8072 14.83618069177656 HODOYOSHI-1 1 40299U 14070B 17292.74963780 .00001210 00000-0 55094-4 0 9992 2 40299 97.3975 13.5721 0014182 22.0388 77.1755 15.22520921163892 CHUBUSAT-1 1 40300U 14070C 17292.83535215 .00001167 00000-0 55232-4 0 9998 2 40300 97.3884 10.4119 0021374 29.4110 109.0258 15.21146849163734 QSAT-EOS 1 40301U 14070D 17292.80804102 .00002738 00000-0 11545-3 0 9993 2 40301 97.3817 10.7983 0028096 22.1823 120.3470 15.23815607163809 FIREBIRD FU3 1 40377U 15003B 17292.52000894 .00002739 00000-0 11809-3 0 9992 2 40377 099.1146 141.3203 0133576 310.5655 048.4006 15.16077698149834 FIREBIRD FU4 1 40378U 15003C 17292.64270483 .00002445 00000-0 10584-3 0 9992 2 40378 99.1147 141.5130 0133791 310.0544 48.9009 15.16092445149866 GRIFEX 1 40379U 15003D 17292.76748425 .00001712 00000-0 80123-4 0 9995 2 40379 99.1180 138.9119 0140140 318.8464 40.2259 15.13481145149727 NO-84 1 40654U 15025D 17292.46417027 .00013430 00000-0 23894-3 0 01165 2 40654 054.9964 040.3354 0170645 217.9790 140.8888 15.36047215018791 NO-83 1 40655U 15025E 17292.23237061 .00023438 00000-0 31881-3 0 01309 2 40655 054.9826 008.0473 0132300 237.1342 121.6699 15.47818902018850 DEORBITSAIL 1 40719U 15032E 17292.50969276 .00000574 00000-0 90144-4 0 9995 2 40719 097.9650 184.6180 0017743 101.3406 258.9799 14.76195565122669 NUDT-PHONESAT 1 40900U 15049B 17292.81548831 .00002812 00000-0 13291-3 0 9993 2 40900 97.4435 299.0280 0014841 144.2489 215.9743 15.20135797115386 XW-2A 1 40903U 15049E 17292.82676255 .00002616 00000-0 68791-4 0 9997 2 40903 97.4122 320.0520 0014885 170.0398 190.1146 15.39419301116814 XW-2C 1 40906U 15049H 17292.77191700 .00000892 00000-0 51456-4 0 9995 2 40906 97.4575 295.8067 0016254 138.3450 221.9023 15.14791680115094 XW-2D 1 40907U 15049J 17292.87832887 .00001015 00000-0 57901-4 0 9994 2 40907 97.4546 295.6450 0015668 135.9494 224.2990 15.14913503115118 LILACSAT-2 1 40908U 15049K 17292.80618316 .00000503 00000-0 31851-4 0 9994 2 40908 97.4651 295.2250 0017241 136.1922 224.0680 15.13272287115017 XW-2F 1 40910U 15049M 17292.87018736 .00001507 00000-0 81867-4 0 9991 2 40910 97.4562 296.5250 0016528 133.4150 226.8462 15.15913835115038 XW-2B 1 40911U 15049N 17292.88774030 .00000995 00000-0 56883-4 0 9999 2 40911 97.4587 296.0915 0015569 136.3184 223.9283 15.14868875115011 DCBB 1 40912U 15049P 17292.81935262 .00002037 00000-0 10301-3 0 9992 2 40912 97.4528 298.6679 0016915 123.9961 318.9323 15.18060710115198 TW-1C 1 40926U 15051B 17292.79129190 .00009537 00000-0 20387-3 0 9999 2 40926 97.2181 331.4590 0013001 79.5920 11.2728 15.44949860116147 TW-1A 1 40928U 15051D 17292.79903396 .00004647 00000-0 12963-3 0 9997 2 40928 97.2169 326.3655 0014280 105.9182 342.6269 15.37141624115834 IO-86 1 40931U 15052B 17292.73257095 .00000782 00000-0 19957-4 0 9991 2 40931 5.9984 64.6790 0012478 208.3409 151.6044 14.76550138111402 GomX-3 1 40949U 98067HA 16292.18357804 .08527750 12374-4 77882-3 0 9992 2 40949 51.6055 106.7696 0006699 286.1344 73.8944 16.38002265 59645 LQSat 1 40958U 15057A 17292.83281405 .00000058 00000-0 16748-4 0 9999 2 40958 97.9681 5.9080 0019060 30.9979 329.2336 14.72993698109469 AO-85 1 40967U 15058D 17292.00171393 .00000636 00000-0 90456-4 0 01210 2 40967 064.7752 203.2735 0180588 032.7732 328.4380 14.75541317018066 ATHENOXAT-1 1 41168U 15077C 17292.78430633 .00003557 00000-0 16223-3 0 9992 2 41168 14.9923 338.9493 0012421 306.8719 204.2061 15.12059016101921 ChubuSat-2 1 41338U 16012B 17292.67571491 .00000525 00000-0 34455-4 0 9997 2 41338 31.0043 41.5751 0013889 212.3837 147.5947 14.99839500 91690 ChubuSat-3 1 41339U 16012C 17292.72022393 .00000566 00000-0 37497-4 0 9990 2 41339 31.0108 40.2420 0013449 219.5605 140.4049 15.00038123 91685 Horyu-4 1 41340U 16012D 17292.63763578 .00000798 00000-0 54582-4 0 9990 2 41340 31.0063 37.3874 0014151 228.5762 131.3658 15.00754373 91724 OUFTI-1 1 41458U 16025C 17292.57141809 .00001258 00000-0 71179-4 0 9997 2 41458 098.1744 337.2370 0171087 233.3871 125.1511 15.03752876081271 e-st@r-II 1 41459U 16025D 17292.60692606 .00003132 00000-0 16960-3 0 9997 2 41459 098.1717 337.1964 0172920 233.8049 124.7072 15.03560437081265 AAUSAT4 1 41460U 16025E 17292.78988577 .00003091 00000-0 16724-3 0 9995 2 41460 98.1676 337.5822 0164362 230.7179 127.9323 15.04658105 81321 NODES 1 1 41477U 98067HX 17262.38431888 .17021661 12538-4 46079-3 0 9990 2 41477 51.6074 225.8859 0003017 249.6794 110.5489 16.45625800 77086 NODES 2 1 41478U 98067HY 17266.27255257 .13534231 12598-4 22876-3 0 9990 2 41478 51.6086 206.1528 0005980 262.1280 97.9071 16.47641774 77698 LO-87 1 41557U 16033B 17292.82756034 .00001992 00000-0 76610-4 0 9996 2 41557 97.4560 12.3249 0012483 289.3217 70.6672 15.27556047 77459 NuSat2 1 41558U 16033C 17292.80868206 .00002050 00000-0 79187-4 0 9998 2 41558 97.4589 12.3737 0011919 288.0133 71.9807 15.27378795 77444 Lapan A3 1 41603U 16040E 17292.84464737 .00000264 00000-0 15680-4 0 9995 2 41603 97.4477 353.2443 0013897 7.4478 82.6772 15.19439309 73585 Swayam 1 41607U 16040J 17292.60005434 .00001999 00000-0 92157-4 0 9998 2 41607 097.4475 353.5977 0014135 008.6495 351.4982 15.21352799073513 Pratham 1 41783U 16059A 17292.85476169 .00000110 00000-0 30721-4 0 9990 2 41783 98.1532 352.8474 0034706 128.7191 231.7123 14.62869823 56824 AlSat 1N 1 41789U 16059G 17292.80827042 .00000135 00000-0 34769-4 0 9994 2 41789 98.1537 353.5439 0029617 121.6958 238.7127 14.64088948 56848 ScatSat 1 41790U 16059H 17292.21065100 .00000037 00000-0 20719-4 0 9991 2 41790 098.2963 338.9086 0019523 109.3060 251.0249 14.50843839056241 TY-1 1 41844U 16066D 17292.78217792 .00002055 00000-0 91525-4 0 9992 2 41844 97.4070 298.0896 0016262 155.4014 291.7256 15.22464643 52296 CAS-2T 1 41845U 16066E 17292.89445535 .00000159 00000-0 35491-4 0 9996 2 41845 98.7723 311.4836 0365292 237.9847 118.5340 14.37815456 49417 Pegasus-1 1 41846U 16066F 17292.73112699 .00000362 00000-0 66735-4 0 9993 2 41846 98.7760 311.0123 0367964 240.2102 116.2021 14.37156020 49363 STARS-C 1 41895U 98067KR 17292.57640778 .00063535 00000-0 48618-3 0 9994 2 41895 051.6331 123.0616 0001513 114.0087 246.1070 15.71526877047479 Tancredo 1 1 41931U 98067KT 17290.98270503 .14164078 12479-4 76733-3 0 9998 2 41931 51.6104 115.9004 0006182 280.1451 79.8879 16.42240901 42996 TO-89 1 41932U 98067KU 17292.59396077 .00020314 00000-0 21793-3 0 9991 2 41932 051.6378 128.5047 0003518 018.7042 341.4082 15.63779180042978 AOBA-V3LOX3 1 41935U 98067KX 17292.15970997 .00024797 00000-0 25598-3 0 9991 2 41935 051.6374 130.0950 0002829 022.0415 338.0702 15.64626124043011 OSNSAT 1 41939U 98067KZ 17292.53455651 .00088486 00000-0 55060-3 0 9994 2 41939 051.6333 119.7551 0001909 337.7940 022.2976 15.76206587042449 EO-88 1 42017U 17008BX 17292.59387059 .00002107 00000-0 91158-4 0 9995 2 42017 097.4820 353.7536 0007753 136.0077 224.1778 15.23547781037424 HAVELSAT 1 42700U 98067LH 17292.61475687 .00019096 00000-0 23609-3 0 9996 2 42700 51.6376 134.6184 0005482 80.3149 279.8464 15.60132535 24337 SOMP2 1 42701U 98067LJ 17292.82652752 .00019344 00000-0 24301-3 0 9996 2 42701 51.6374 133.7848 0005484 81.3424 278.8190 15.59700663 24350 Columbia 1 42702U 98067LK 17292.72717799 .00060496 00000-0 57242-3 0 9993 2 42702 51.6352 131.6094 0003061 95.8381 264.2963 15.66376430 24309 PHOENIX 1 42706U 98067LP 17292.68945695 .00018926 00000-0 23595-3 0 9995 2 42706 51.6372 134.3717 0001062 93.6407 266.4708 15.59929614 24256 X-CubeSat 1 42707U 98067LQ 17292.81519305 .00020052 00000-0 24832-3 0 9994 2 42707 51.6362 133.7030 0001071 98.1435 261.9679 15.60062508 24268 qbee 1 42708U 98067LR 17292.75657362 .00018727 00000-0 23348-3 0 9991 2 42708 51.6363 134.0618 0001081 95.1306 264.9810 15.59936223 24218 ZA-AeroSat 1 42713U 98067LU 17292.80170016 .00016286 00000-0 21150-3 0 9996 2 42713 51.6372 134.3685 0001178 13.4302 346.6722 15.58967382 23923 LINK 1 42714U 98067LV 17292.81029386 .00026804 00000-0 31890-3 0 9990 2 42714 51.6359 133.6676 0000623 9.6366 350.4639 15.60924779 24042 UPSat 1 42716U 98067LX 17292.60477370 .00022993 00000-0 27658-3 0 9991 2 42716 051.6371 134.5531 0003889 090.6884 269.4556 15.60728364024038 SpaceCube 1 42717U 98067LY 17292.76991076 .00019714 00000-0 24679-3 0 9990 2 42717 51.6371 134.1539 0004027 88.2254 271.9201 15.59784648 23299 Hoopoe 1 42718U 98067LZ 17292.81522934 .00021199 00000-0 26014-3 0 9995 2 42718 51.6370 133.7071 0003873 88.4476 271.6961 15.60259935 23301 Challenger 1 42721U 98067MA 17292.79094192 .00031686 00000-0 36506-3 0 9995 2 42721 51.6360 133.5363 0005438 62.3441 297.8104 15.61656857 23009 NJUST-1 1 42722U 98067MB 17292.76583933 .00015472 00000-0 20298-3 0 9995 2 42722 51.6375 134.8751 0006635 59.9720 300.1931 15.58725879 22982 UNSW-EC0 1 42723U 98067MC 17292.65498400 .00023038 00000-0 28363-3 0 9996 2 42723 51.6374 134.8886 0005930 61.0733 299.0855 15.60107069 22952 DUTHsat 1 42724U 98067MD 17292.80633631 .00029569 00000-0 34501-3 0 9997 2 42724 51.6371 133.6468 0004786 67.5830 292.5670 15.61368419 22907 LO-90 1 42725U 98067ME 17292.82363357 .00019138 00000-0 24554-3 0 9993 2 42725 51.6375 134.5135 0005460 65.7099 294.4463 15.59150189 22899 nSIGHT1 1 42726U 98067MF 17292.82432317 .00008694 00000-0 12363-3 0 9997 2 42726 51.6388 135.2718 0006344 64.0969 296.0676 15.57235857 22897 QBITO 1 42728U 98067MH 17292.79657815 .00019159 00000-0 24134-3 0 9994 2 42728 51.6389 134.3421 0003145 82.3530 277.7820 15.59644119 22708 Aalto-2 1 42729U 98067MJ 17292.73225922 .00019213 00000-0 24182-3 0 9993 2 42729 51.6376 134.6554 0003058 82.3007 277.8333 15.59664763 22704 SUSat 1 42730U 98067MK 17292.61361503 .00017999 00000-0 22915-3 0 9999 2 42730 051.6374 135.3595 0003159 077.5663 282.5683 15.59411065022686 i-INSPIRE II 1 42731U 98067ML 17292.64569863 .00022596 00000-0 27573-3 0 9996 2 42731 51.6361 134.8125 0005172 2.1178 357.9837 15.60357739 22731 PolyITAN-2-SAU 1 42732U 98067MM 17292.59858706 .00019743 00000-0 24701-3 0 9998 2 42732 051.6366 135.2488 0005426 001.4546 358.6462 15.59793018022720 SNUSAT-1 1 42733U 98067MN 17292.74156153 .00016091 00000-0 20545-3 0 9998 2 42733 51.6373 134.7060 0005591 5.7224 354.3831 15.59418595 22741 ExAlta-1 1 42734U 98067MP 17292.77682422 .00024263 00000-0 29695-3 0 9990 2 42734 51.6363 134.1906 0006909 31.6972 328.4436 15.60223193 22705 Aoxiang-1 1 42735U 98067MQ 17292.88931814 .00017490 00000-0 22760-3 0 9995 2 42735 51.6367 134.1968 0007099 56.6165 303.5506 15.58834031 24137 BeEagleSat 1 42736U 98067MR 17292.75320699 .00016915 00000-0 21801-3 0 9991 2 42736 51.6366 134.7875 0006831 55.1374 305.0260 15.59119090 22807 Atlantis 1 42737U 98067MS 17292.56757411 .00050456 00000-0 51028-3 0 9999 2 42737 051.6344 133.5330 0004043 057.4439 302.6946 15.64780216022698 CAS-4B 1 42759U 17034B 17292.87150463 .00000701 00000-0 57084-4 0 9993 2 42759 43.0196 322.3362 0007573 36.2133 323.8784 15.09057921 19131 CAS-4A 1 42761U 17034D 17292.55847750 .00000706 00000-0 57338-4 0 9990 2 42761 43.0201 323.9773 0007943 35.9729 95.3433 15.09132220 19084 UCLSat 1 42765U 17036A 17291.84708208 .00001768 00000-0 82514-4 0 9994 2 42765 97.4367 350.1989 0011645 194.3555 165.7351 15.21099608 18015 NIUSat 1 42766U 17036B 17292.93322681 .00001733 00000-0 83913-4 0 9999 2 42766 97.4379 351.0464 0016255 177.7259 182.4091 15.19788472 18035 LituanicaSAT 2 1 42768U 17036D 17292.71896488 .00002907 00000-0 13696-3 0 9992 2 42768 97.4369 350.8712 0016296 182.3687 177.7474 15.20200711 18018 InflateSail 1 42770U 17036F 17245.93730135 .99999999 00000-0 73960-1 0 9995 2 42770 097.4262 306.2162 0014869 278.7167 080.9844 16.07641391010932 Aalto 1 1 42775U 17036L 17292.63222245 .00001209 00000-0 58796-4 0 9990 2 42775 97.4363 350.8338 0014400 179.6514 180.4734 15.20237566 17946 URSA MAIOR 1 42776U 17036M 17292.43164228 .00001367 00000-0 66012-4 0 9990 2 42776 097.4367 350.6473 0014251 180.5742 179.5480 15.20285205017914 Max Valier Sat 1 42778U 17036P 17292.73025766 .00001477 00000-0 70224-4 0 9990 2 42778 97.4382 351.0362 0012755 184.4112 175.7013 15.20705558 17958 Pegasus 1 42784U 17036V 17292.58128719 .00001693 00000-0 79458-4 0 9990 2 42784 097.4367 350.9031 0012265 191.9208 168.1739 15.20958482017939 NUDATSat 1 42787U 17036Y 17292.83173341 .00002557 00000-0 11748-3 0 9999 2 42787 97.4367 351.1794 0011953 191.3647 168.7320 15.21233367 17813 SUCHAI 1 1 42788U 17036Z 17292.83576116 .00002098 00000-0 97279-4 0 9991 2 42788 97.4366 351.1728 0011938 191.0901 169.0073 15.21112575 18045 SKCUBE 1 42789U 17036AA 17292.43846230 .00001827 00000-0 85115-4 0 9990 2 42789 097.4366 350.7852 0011736 192.2394 167.8559 15.21126405017900 VZLUSAT 1 1 42790U 17036AB 17292.43116609 .00002419 00000-0 11122-3 0 9996 2 42790 097.4365 350.7916 0011468 192.8961 167.1983 15.21271148017909 VENTA 1 1 42791U 17036AC 17292.43059235 .00001718 00000-0 80007-4 0 9998 2 42791 097.4364 350.7945 0011275 193.0934 167.0011 15.21213840017894 Robusta 1B 1 42792U 17036AD 17292.42869055 .00001880 00000-0 87162-4 0 9996 2 42792 097.4364 350.7938 0011275 193.3933 166.7005 15.21259884017919 D-SAT 1 42794U 17036AF 17292.61800693 .00000330 00000-0 34464-4 0 9998 2 42794 97.6284 350.8882 0127506 3.0588 357.1381 14.90672638 17881 BIRD-J 1 42820U 98067MU 17292.57083514 .00016857 00000-0 22333-3 0 9993 2 42820 051.6368 136.5695 0001786 346.8932 013.2014 15.58403681016244 BIRD-G 1 42821U 98067MV 17292.76807059 .00016472 00000-0 21942-3 0 9991 2 42821 51.6369 135.6368 0001830 353.6060 6.4908 15.58278249 16236 BIRD-M 1 42822U 98067MW 17292.76856364 .00016726 00000-0 22247-3 0 9996 2 42822 51.6371 135.6405 0001849 357.2002 2.8980 15.58305006 16230 BIRD-B 1 42823U 98067MX 17292.77058467 .00017338 00000-0 23028-3 0 9994 2 42823 51.6375 135.6571 0005196 15.6511 344.4641 15.58306333 16231 BIRD-N 1 42824U 98067MY 17292.71070118 .00016887 00000-0 22517-3 0 9996 2 42824 51.6380 136.0077 0005064 16.4801 343.6355 15.58222981 16216 TechnoSat 1 42829U 17042E 17292.60039291 .00000238 00000-0 29713-4 0 9999 2 42829 097.6073 198.7877 0012779 281.3222 078.6561 14.90695230014481 Mayak 1 42830U 17042F 17292.72907939 .00000948 00000-0 10154-3 0 9993 2 42830 97.6079 198.9319 0013016 279.3301 80.6446 14.90872659 14502 OBJECT MZ 1 42910U 98067MZ 17292.76988105 .00014493 00000-0 20206-3 0 9995 2 42910 51.6363 136.3916 0006652 39.7395 320.4083 15.57150793 9839 OBJECT NA 1 42911U 98067NA 17292.83339358 .00015422 00000-0 21366-3 0 9995 2 42911 51.6379 136.0771 0006046 35.3137 324.8254 15.57267089 9820 OBJECT NB 1 42912U 98067NB 17292.84103903 .00016578 00000-0 23119-3 0 9993 2 42912 51.6353 136.1044 0005843 49.8808 310.2695 15.57027187 9849 OBJECT NC 1 42913U 98067NC 17292.75420763 .00023226 00000-0 30711-3 0 9994 2 42913 51.6366 136.2871 0004569 65.2030 294.9438 15.58214717 9791 OBJECT ND 1 42914U 98067ND 17292.58732785 .00014072 00000-0 19827-3 0 9990 2 42914 051.6376 137.4298 0005612 042.2567 317.8856 15.56899252009777 /EX
